When you browse on this site, cookies collect data to enhance your experience and personalize the content and advertising you see.
Visit our Privacy Policy to learn more. By continuing to use the site, you agree to this use of cookies and data.
  • In Norway
  • List of Countries
  • For 7 days
  • Water Temperature
  • Satellite Maps
  • Weather Map
  • Weather Widgets
  • user-avatar
    Login

    Hourly Weather Al-Basra

    Today, 22 January, Tuesday

    Time Temperature Precipitation Wind Pressure Humidity
    00:00 +12°C° 0 mm 2 mps 763 mmHg 32%
    01:00 +12°C° 0 mm 2 mps 762 mmHg 33%
    02:00 +10°C° 0 mm 2 mps 762 mmHg 34%
    03:00 +10°C° 0 mm 2 mps 762 mmHg 36%
    04:00 +10°C° 0 mm 2 mps 762 mmHg 37%
    05:00 +9°C° 0 mm 2 mps 762 mmHg 37%
    06:00 +9°C° 0 mm 2 mps 762 mmHg 38%
    07:00 +10°C° 0 mm 3 mps 762 mmHg 36%
    08:00 +11°C° 0 mm 3 mps 762 mmHg 33%
    09:00 +12°C° 0 mm 3 mps 762 mmHg 30%
    10:00 +13°C° 0 mm 3 mps 762 mmHg 27%
    11:00 +16°C° 0 mm 3 mps 762 mmHg 23%
    12:00 +17°C° 0 mm 3 mps 762 mmHg 19%
    13:00 +17°C° 0 mm 3 mps 762 mmHg 18%
    14:00 +18°C° 0 mm 3 mps 761 mmHg 17%
    15:00 +19°C° 0 mm 3 mps 761 mmHg 17%
    16:00 +18°C° 0 mm 2 mps 760 mmHg 18%
    17:00 +17°C° 0 mm 2 mps 760 mmHg 20%
    18:00 +16°C° 0 mm 1 mps 760 mmHg 21%
    19:00 +16°C° 0 mm 1 mps 760 mmHg 22%
    20:00 +16°C° 0 mm 2 mps 761 mmHg 23%
    21:00 +15°C° 0 mm 2 mps 761 mmHg 23%
    22:00 +15°C° 0 mm 2 mps 761 mmHg 24%
    23:00 +14°C° 0 mm 2 mps 761 mmHg 25%

    Tomorrow, 23 January, Wednesday

    Time Temperature Precipitation Wind Pressure Humidity
    00:00 +14°C° 0 mm 2 mps 761 mmHg 26%
    01:00 +14°C° 0 mm 2 mps 761 mmHg 27%
    02:00 +13°C° 0 mm 2 mps 760 mmHg 28%
    03:00 +13°C° 0 mm 2 mps 760 mmHg 29%
    04:00 +13°C° 0 mm 1 mps 760 mmHg 29%
    05:00 +12°C° 0 mm 1 mps 760 mmHg 30%
    06:00 +11°C° 0 mm 0 mps 760 mmHg 30%
    07:00 +12°C° 0 mm 0 mps 761 mmHg 27%
    08:00 +14°C° 0 mm 0 mps 761 mmHg 24%
    09:00 +15°C° 0 mm 0 mps 762 mmHg 21%
    10:00 +18°C° 0 mm 1 mps 761 mmHg 20%
    11:00 +19°C° 0 mm 1 mps 761 mmHg 19%
    12:00 +20°C° 0 mm 1 mps 761 mmHg 17%
    13:00 +21°C° 0 mm 1 mps 761 mmHg 17%
    14:00 +20°C° 0 mm 2 mps 760 mmHg 16%
    15:00 +21°C° 0 mm 2 mps 760 mmHg 16%
    16:00 +20°C° 0 mm 2 mps 760 mmHg 18%
    17:00 +20°C° 0 mm 1 mps 760 mmHg 19%
    18:00 +19°C° 0 mm 1 mps 760 mmHg 21%
    19:00 +19°C° 0 mm 1 mps 761 mmHg 22%
    20:00 +18°C° 0 mm 1 mps 761 mmHg 22%
    21:00 +18°C° 0 mm 1 mps 761 mmHg 23%
    22:00 +16°C° 0 mm 1 mps 761 mmHg 24%
    23:00 +16°C° 0 mm 1 mps 761 mmHg 24%

    Day after tomorrow, 24 January, Thursday

    Time Temperature Precipitation Wind Pressure Humidity
    00:00 +15°C° 0 mm 1 mps 761 mmHg 25%
    01:00 +15°C° 0 mm 1 mps 761 mmHg 25%
    02:00 +14°C° 0 mm 1 mps 761 mmHg 26%
    03:00 +14°C° 0 mm 1 mps 761 mmHg 27%
    04:00 +14°C° 0 mm 1 mps 761 mmHg 26%
    05:00 +14°C° 0 mm 1 mps 761 mmHg 26%
    06:00 +14°C° 0 mm 2 mps 761 mmHg 25%
    07:00 +15°C° 0 mm 2 mps 762 mmHg 24%
    08:00 +16°C° 0 mm 2 mps 762 mmHg 22%
    09:00 +18°C° 0 mm 2 mps 763 mmHg 20%
    10:00 +19°C° 0 mm 2 mps 763 mmHg 18%
    11:00 +20°C° 0 mm 2 mps 763 mmHg 17%
    12:00 +21°C° 0 mm 2 mps 762 mmHg 15%
    13:00 +23°C° 0 mm 2 mps 762 mmHg 15%
    14:00 +24°C° 0 mm 3 mps 761 mmHg 15%
    15:00 +24°C° 0 mm 3 mps 761 mmHg 15%
    16:00 +22°C° 0 mm 3 mps 761 mmHg 17%
    17:00 +21°C° 0 mm 3 mps 761 mmHg 19%
    18:00 +21°C° 0 mm 3 mps 761 mmHg 21%
    19:00 +20°C° 0 mm 3 mps 761 mmHg 24%
    20:00 +19°C° 0 mm 3 mps 761 mmHg 28%
    21:00 +18°C° 0 mm 3 mps 762 mmHg 31%
    22:00 +18°C° 0 mm 3 mps 761 mmHg 34%
    23:00 +17°C° 0 mm 3 mps 761 mmHg 37%

    25 January, Friday

    Time Temperature Precipitation Wind Pressure Humidity
    00:00 +17°C° 0 mm 3 mps 761 mmHg 39%
    01:00 +17°C° 0 mm 3 mps 761 mmHg 42%
    02:00 +16°C° 0 mm 3 mps 760 mmHg 44%
    03:00 +16°C° 0 mm 3 mps 760 mmHg 46%
    04:00 +15°C° 0 mm 4 mps 760 mmHg 48%
    05:00 +15°C° 0 mm 4 mps 760 mmHg 50%
    06:00 +15°C° 0 mm 4 mps 760 mmHg 52%
    07:00 +16°C° 0 mm 5 mps 760 mmHg 54%
    08:00 +19°C° 0 mm 6 mps 760 mmHg 55%
    09:00 +20°C° 0 mm 7 mps 760 mmHg 57%
    10:00 +21°C° 0 mm 7 mps 760 mmHg 55%
    11:00 +23°C° 0 mm 7 mps 760 mmHg 54%
    12:00 +24°C° 0 mm 7 mps 760 mmHg 52%
    13:00 +26°C° 0 mm 6 mps 759 mmHg 50%
    14:00 +26°C° 0 mm 6 mps 759 mmHg 49%
    15:00 +26°C° 0 mm 5 mps 758 mmHg 47%
    16:00 +25°C° 0 mm 5 mps 758 mmHg 51%
    17:00 +23°C° 0 mm 4 mps 758 mmHg 55%
    18:00 +22°C° 0 mm 4 mps 758 mmHg 59%
    19:00 +21°C° 0 mm 4 mps 759 mmHg 65%
    20:00 +20°C° 0 mm 4 mps 759 mmHg 70%
    21:00 +19°C° 0 mm 3 mps 760 mmHg 76%
    22:00 +19°C° 0 mm 3 mps 760 mmHg 77%
    23:00 +19°C° 0 mm 3 mps 760 mmHg 77%

    26 January, Saturday

    Time Temperature Precipitation Wind Pressure Humidity
    00:00 +18°C° 0 mm 2 mps 760 mmHg 78%
    01:00 +18°C° 0 mm 2 mps 759 mmHg 80%
    02:00 +18°C° 0 mm 2 mps 759 mmHg 81%
    03:00 +17°C° 0 mm 2 mps 759 mmHg 82%
    04:00 +17°C° 0 mm 3 mps 759 mmHg 86%
    05:00 +17°C° 0 mm 3 mps 759 mmHg 89%
    06:00 +17°C° 0 mm 3 mps 760 mmHg 93%
    07:00 +18°C° 0 mm 3 mps 760 mmHg 90%
    08:00 +19°C° 0 mm 3 mps 761 mmHg 87%
    09:00 +20°C° 0 mm 3 mps 761 mmHg 84%
    10:00 +22°C° 0 mm 4 mps 761 mmHg 72%
    11:00 +23°C° 0 mm 5 mps 761 mmHg 61%
    12:00 +26°C° 0 mm 5 mps 761 mmHg 49%
    13:00 +27°C° 0 mm 5 mps 760 mmHg 47%
    14:00 +27°C° 0 mm 5 mps 760 mmHg 45%
    15:00 +27°C° 0 mm 5 mps 759 mmHg 43%
    16:00 +26°C° 0 mm 5 mps 759 mmHg 49%
    17:00 +24°C° 0 mm 6 mps 759 mmHg 54%
    18:00 +23°C° 0 mm 6 mps 759 mmHg 60%
    19:00 +22°C° 0 mm 6 mps 760 mmHg 64%
    20:00 +21°C° 0 mm 5 mps 760 mmHg 69%
    21:00 +21°C° 0 mm 5 mps 760 mmHg 74%
    22:00 +20°C° 0 mm 5 mps 760 mmHg 75%
    23:00 +20°C° 0 mm 5 mps 759 mmHg 76%

    27 January, Sunday

    Time Temperature Precipitation Wind Pressure Humidity
    00:00 +20°C° 0 mm 5 mps 759 mmHg 77%
    01:00 +19°C° 0 mm 5 mps 759 mmHg 76%
    02:00 +19°C° 0 mm 5 mps 759 mmHg 75%
    03:00 +19°C° 0 mm 4 mps 759 mmHg 74%
    04:00 +19°C° 0 mm 5 mps 759 mmHg 75%
    05:00 +19°C° 0 mm 5 mps 759 mmHg 76%
    06:00 +19°C° 0 mm 5 mps 759 mmHg 76%
    07:00 +20°C° 0 mm 6 mps 759 mmHg 74%
    08:00 +21°C° 0 mm 7 mps 759 mmHg 72%
    09:00 +21°C° 0 mm 7 mps 760 mmHg 70%
    10:00 +23°C° 0 mm 7 mps 759 mmHg 63%
    11:00 +24°C° 0 mm 7 mps 759 mmHg 56%
    12:00 +27°C° 0 mm 7 mps 758 mmHg 49%
    13:00 +28°C° 0 mm 7 mps 758 mmHg 40%
    14:00 +30°C° 0 mm 6 mps 757 mmHg 31%
    15:00 +32°C° 0 mm 5 mps 756 mmHg 22%
    16:00 +29°C° 0 mm 6 mps 756 mmHg 28%
    17:00 +27°C° 0 mm 8 mps 756 mmHg 34%
    18:00 +24°C° 0 mm 9 mps 757 mmHg 40%
    19:00 +24°C° 0 mm 9 mps 757 mmHg 44%
    20:00 +23°C° 0 mm 9 mps 757 mmHg 48%
    21:00 +23°C° 0 mm 9 mps 757 mmHg 52%
    22:00 +23°C° 0 mm 10 mps 757 mmHg 51%
    23:00 +23°C° 0 mm 11 mps 757 mmHg 49%
    Show more